This is the latest recevied weather packets stored in our database for station/object vk4zu-13. If no packets are shown the sender has not sent any weather packets the latest 10 day(s).
| Time | Temp. | Humidity | Pressure | Rain* | Wind** | Luminosity | Snow |
|---|---|---|---|---|---|---|---|
| 1778134235 | 25° C | 43% | 1013.4 hPa | 0 mm | - | 118 W/m² | - |
| 1778134166 | 25.56° C | 46% | 1013.4 hPa | 0 mm | - | 104 W/m² | - |
| 1778134095 | 25.56° C | 44% | 1013.4 hPa | 0 mm | - | 95 W/m² | - |
| 1778134033 | 25.56° C | 41% | 1013.4 hPa | 0 mm | - | 95 W/m² | - |
| 1778133970 | 25.56° C | 44% | 1013.4 hPa | 0 mm | - | 95 W/m² | - |
| 1778133910 | 25.56° C | 44% | 1013.5 hPa | 0 mm | - | 95 W/m² | - |
| 1778133848 | 25.56° C | 40% | 1013.5 hPa | 0 mm | - | 98 W/m² | - |
| 1778133786 | 25.56° C | 40% | 1013.4 hPa | 0 mm | - | 105 W/m² | - |
| 1778133718 | 25.56° C | 38% | 1013.5 hPa | 0 mm | - | 105 W/m² | - |
| 1778133657 | 25.56° C | 39% | 1013.5 hPa | 0 mm | - | 105 W/m² | - |
| 1778133607 | 25.56° C | 40% | 1013.4 hPa | 0 mm | - | 107 W/m² | - |
| 1778133529 | 25.56° C | 41% | 1013.5 hPa | 0 mm | - | 114 W/m² | - |
| 1778133458 | 25.56° C | 40% | 1013.4 hPa | 0 mm | - | 114 W/m² | - |
| 1778133387 | 25.56° C | 42% | 1013.4 hPa | 0 mm | - | 144 W/m² | - |
| 1778133317 | 25.56° C | 40% | 1013.6 hPa | 0 mm | - | 156 W/m² | - |
| 1778133247 | 25.56° C | 40% | 1013.6 hPa | 0 mm | - | 178 W/m² | - |
| 1778133177 | 25.56° C | 42% | 1013.6 hPa | 0 mm | - | 158 W/m² | - |
| 1778133107 | 25.56° C | 40% | 1013.6 hPa | 0 mm | - | 144 W/m² | - |
| 1778133038 | 25.56° C | 39% | 1013.6 hPa | 0 mm | - | 121 W/m² | - |
| 1778132973 | 25.56° C | 38% | 1013.6 hPa | 0 mm | - | 114 W/m² | - |
| 1778132904 | 25.56° C | 38% | 1013.6 hPa | 0 mm | - | 116 W/m² | - |
| 1778132845 | 26.11° C | 39% | 1013.4 hPa | 0 mm | - | 116 W/m² | - |
| 1778132781 | 26.11° C | 39% | 1013.4 hPa | 0 mm | - | 116 W/m² | - |
| 1778132719 | 26.11° C | 37% | 1013.4 hPa | 0 mm | - | 118 W/m² | - |
| 1778132661 | 26.11° C | 38% | 1013.4 hPa | 0 mm | - | 120 W/m² | - |
* Rain latest hour (hover to see other rain measurements)
** Current wind speed in m/s (hover to see current wind gust speed)